This demonstration page uses our WeatherBlox Daily Observations layout. Learn more.

38.88101, -77.10428

Hourly Observations for September 15, 2015

Temp ( °F °C ) Dew Point ( °F °C ) Humidity (%) Winds ( mph kmh ) Pressure ( in mb ) Visibility ( mi km ) Precip ( " mm )
12:52 am 00:52 Clear 64 17.8 51 10.6 63 63 SSW 5 7 30.27 1025 10 16.0934 0 0
1:52 am 01:52 Clear 63 17.2 51 10.6 65 65 Calm 30.27 1025 10 16.0934 0 0
2:52 am 02:52 Clear 61 16.1 53 11.7 75 75 SW 3 6 30.29 1026 10 16.0934 0 0
3:52 am 03:52 Clear 62 16.7 52 11.1 70 70 Calm 30.3 1026 10 16.0934 0 0
4:52 am 04:52 Clear 60 15.6 53 11.7 78 78 N 6 9 30.31 1026 10 16.0934 0 0
5:52 am 05:52 Clear 60 15.6 51 10.6 72 72 NNW 7 11 30.32 1027 10 16.0934 0 0
6:52 am 06:52 Partly Cloudy 60 15.6 50 10 70 70 WSW 6 9 30.34 1027 10 16.0934 0 0
7:52 am 07:52 Partly Cloudy 64 17.8 53 11.7 68 68 N 3 6 30.36 1028 10 16.0934 0 0
8:52 am 08:52 Partly Cloudy 68 20 52 11.1 57 57 N 7 11 30.37 1028 10 16.0934 0 0
9:52 am 09:52 Mostly Cloudy 72 22.2 53 11.7 52 52 N 5 7 30.39 1029 10 16.0934 0 0
10:52 am 10:52 Mostly Cloudy 77 25 53 11.7 43 43 N 6 9 30.39 1029 10 16.0934 0 0
11:52 am 11:52 Mostly Cloudy 79 26.1 50 10 36 36 NE 5 7 30.38 1029 10 16.0934 0 0
12:52 pm 12:52 Mostly Cloudy 80 26.7 50 10 35 35 Calm 30.37 1028 10 16.0934 0 0
1:52 pm 13:52 Partly Cloudy 82 27.8 49 9.4 32 32 NE 3 6 30.35 1028 10 16.0934 0 0
2:52 pm 14:52 Partly Cloudy 82 27.8 50 10 33 33 E 5 7 30.33 1027 10 16.0934 0 0
3:52 pm 15:52 Mostly Sunny 84 28.9 49 9.4 30 30 Calm 30.31 1027 10 16.0934 0 0
4:52 pm 16:52 Mostly Cloudy 82 27.8 51 10.6 34 34 SSE 6 9 30.31 1027 10 16.0934 0 0
5:52 pm 17:52 Mostly Cloudy 82 27.8 51 10.6 34 34 S 7 11 30.31 1026 10 16.0934 0 0
6:52 pm 18:52 Mostly Cloudy 80 26.7 52 11.1 38 38 SW 8 13 30.31 1026 10 16.0934 0 0
7:52 pm 19:52 Partly Cloudy 77 25 52 11.1 42 42 W 6 9 30.31 1026 10 16.0934 0 0
8:52 pm 20:52 Partly Cloudy 75 23.9 57 13.9 54 54 SE 3 6 30.32 1027 10 16.0934 0 0
9:52 pm 21:52 Clear 73 22.8 58 14.4 59 59 Calm 30.34 1027 10 16.0934 0 0
10:52 pm 22:52 Partly Cloudy 70 21.1 60 15.6 71 71 Calm 30.34 1027 10 16.0934 0 0
11:52 pm 23:52 Partly Cloudy 69 20.6 58 14.4 68 68 SSW 3 6 30.35 1028 10 16.0934 0 0

Powered by AerisWeather